USA 485 (62756 NORAD) Tracking and Keplerian Element Data

This shows tracking and keplerian element data for the satellite.

Feedback or suggestion? Click here.




ElementValue
Catalog62756
NameUSA 485
Epoch Orbit5249
Epoch Day354.00664117
Epoch Year2025
RAAN119.2916
Inclination43
Eccentricity0.0003166
Argument of Perigee352.4203
Mean Anonmoly7.6618
Mean Motion15.75119952
Decay Rate0.0018197
L11 62756U 25014X 25354.00664117 .00181970 00000+0 11581-2 0 9995
L22 62756 43.0000 119.2916 0003166 352.4203 7.6618 15.75119952 52492



Live tracking and technical data element details for USA 485 (NORAD 62756). USA 485 can be tracked NOW for your location showing map with azimuth and elevation plus other details from your city location.







IsCatalogInMostPopularTable: catalog: 62756, numindb: 285
Update: records affected: 1



GetName: 62756 USA 485

Hit Count: updated at: Sat, 07 Mar 2026 03:50:31 GMT